Roseburg, OR

8:05 AM PST on January 16, 2017 (GMT -0800)
Roseburg Regional

Weather History for KRBG - November, 2013

Change the Weather History Date:

Saturday, November 30, 2013

  Actual Average Record
Temperature  
Mean Temperature 43 °F 44 °F  
Max Temperature 46 °F 49 °F 66 °F (1939)
Min Temperature 39 °F 38 °F 22 °F (1952)
Degree Days  
Heating Degree Days 22 21  
Month to date heating degree days 560 543  
Since 1 July heating degree days 959 929  
Cooling Degree Days 0 0  
Month to date cooling degree days 0 0  
Year to date cooling degree days 823 480  
Moisture  
Dew Point 41 °F    
Average Humidity 96    
Maximum Humidity 100    
Minimum Humidity 92    
Precipitation  
Precipitation 0.00 in 0.29 in 1.17 in (1961)
Month to date precipitation 2.58 6.46  
Year to date precipitation 15.39 29.74  
Sea Level Pressure  
Sea Level Pressure 30.38 in    
Wind  
Wind Speed 1 mph (South)    
Max Wind Speed 6 mph    
Max Gust Speed 7 mph    
Visibility 2 miles    
Events Fog    
T = Trace of Precipitation, MM = Missing Value Source: NWS Daily Summary

Daily Weather History Graph

Daily Weather History Graph

Search for Another Location

Airport or City:

Trip Planner

Search our weather history database for the weather conditions in past years. The results will help you decide how hot, cold, wet, or windy it might be!

Date:

Astronomy

Nov. 30, 2013 Rise Set
Actual Time 7:24 AM PST 4:39 PM PST
Civil Twilight 6:53 AM PST 5:11 PM PST
Nautical Twilight 6:17 AM PST 5:46 PM PST
Astronomical Twilight 5:43 AM PST 6:20 PM PST
Moon 4:38 AM PST (11/30) 3:10 PM PST (11/30)
Length of Visible Light 10h 18m
Length of Day
9h 14m
Waning Crescent, 6% of the Moon is Illuminated
Nov 30
Waning Crescent
Dec 2
New
Dec 9
First Quarter
Dec 17
Full
Dec 25
Last Quarter

Hourly Weather History & Observations

Time (PST) Temp. Windchill Dew Point Humidity Pressure Visibility Wind Dir Wind Speed Gust Speed Precip Events Conditions
12:01 AM 41.0 °F - 41.0 °F 100% 30.35 in 1.2 mi Calm Calm - N/A   Overcast
12:33 AM 42.1 °F - 41.0 °F 96% 30.35 in 3.0 mi Calm Calm - N/A   Overcast
12:53 AM 42.1 °F - 41.0 °F 96% 30.38 in 3.0 mi Calm Calm - N/A   Overcast
1:36 AM 42.1 °F - 41.0 °F 96% 30.37 in 1.8 mi Calm Calm - N/A   Overcast
1:53 AM 41.0 °F - 41.0 °F 100% 30.39 in 0.8 mi Calm Calm - N/A   Mist
2:13 AM 41.0 °F 39.0 °F 41.0 °F 100% 30.37 in 1.0 mi West 3.5 mph - N/A   Mist
2:23 AM 41.0 °F - 39.9 °F 96% 30.36 in 0.5 mi Calm Calm - N/A Fog Fog
2:53 AM 41.0 °F - 39.9 °F 96% 30.37 in 0.8 mi Calm Calm - N/A   Mist
3:04 AM 41.0 °F - 41.0 °F 100% 30.36 in 1.0 mi Calm Calm - N/A   Mist
3:16 AM 41.0 °F - 41.0 °F 100% 30.37 in 0.5 mi Calm Calm - N/A Fog Fog
3:49 AM 39.2 °F - 39.2 °F 100% 30.37 in 0.2 mi Calm Calm - N/A Fog Fog
3:53 AM 39.9 °F - 39.9 °F 100% 30.38 in 0.2 mi Calm Calm - N/A Fog Fog
4:53 AM 39.9 °F - 39.9 °F 100% 30.39 in 0.2 mi Calm Calm - N/A Fog Fog
5:53 AM 39.0 °F - 39.0 °F 100% 30.39 in 0.5 mi Calm Calm - N/A Fog Fog
6:53 AM 39.0 °F - 39.0 °F 100% 30.40 in 0.5 mi Calm Calm - N/A Fog Fog
7:45 AM 39.0 °F 36.8 °F 39.0 °F 100% 30.40 in 0.2 mi NNE 3.5 mph - N/A Fog Fog
7:53 AM 39.0 °F - 39.0 °F 100% 30.42 in 0.2 mi Calm Calm - N/A Fog Fog
8:53 AM 39.0 °F - 39.0 °F 100% 30.44 in 0.2 mi Calm Calm - N/A Fog Fog
9:26 AM 39.9 °F - 39.0 °F 97% 30.42 in 0.5 mi Calm Calm - N/A Fog Fog
9:53 AM 39.9 °F - 39.0 °F 97% 30.43 in 0.5 mi Calm Calm - N/A Fog Fog
10:45 AM 39.9 °F - 39.9 °F 100% 30.41 in 1.0 mi Calm Calm - N/A   Overcast
10:53 AM 39.9 °F - 39.9 °F 100% 30.43 in 1.0 mi Calm Calm - N/A   Overcast
11:19 AM 41.0 °F - 39.9 °F 96% 30.40 in 0.8 mi Calm Calm - N/A   Overcast
11:39 AM 41.0 °F 39.0 °F 39.9 °F 96% 30.40 in 1.2 mi South 3.5 mph - N/A   Overcast
11:53 AM 41.0 °F 39.0 °F 39.9 °F 96% 30.41 in 2.0 mi ESE 3.5 mph - N/A   Overcast
12:11 PM 41.0 °F - 41.0 °F 100% 30.39 in 4.0 mi Calm Calm - N/A   Overcast
12:53 PM 43.0 °F - 41.0 °F 93% 30.40 in 6.0 mi Calm Calm - N/A   Overcast
1:53 PM 44.1 °F - 42.1 °F 93% 30.38 in 9.0 mi Calm Calm - N/A   Overcast
2:53 PM 45.0 °F - 43.0 °F 93% 30.36 in 9.0 mi Calm Calm - N/A   Overcast
3:53 PM 45.0 °F 43.5 °F 43.0 °F 93% 30.37 in 5.0 mi South 3.5 mph - N/A   Overcast
4:09 PM 44.1 °F - 43.0 °F 96% 30.36 in 5.0 mi Calm Calm - N/A   Overcast
4:53 PM 44.1 °F - 43.0 °F 96% 30.38 in 4.0 mi Calm Calm - N/A   Overcast
5:03 PM 43.0 °F 41.3 °F 43.0 °F 100% 30.36 in 1.8 mi SW 3.5 mph - N/A   Overcast
5:32 PM 43.0 °F 41.3 °F 42.1 °F 97% 30.36 in 0.8 mi WSW 3.5 mph - N/A   Mist
5:53 PM 43.0 °F - 43.0 °F 100% 30.38 in 0.5 mi Calm Calm - N/A Fog Fog
6:07 PM 43.0 °F - 43.0 °F 100% 30.36 in 0.2 mi Calm Calm - N/A Fog Fog
6:53 PM 43.0 °F - 42.1 °F 97% 30.37 in 0.2 mi Calm Calm - N/A Fog Fog
7:15 PM 43.0 °F - 42.1 °F 97% 30.36 in 0.2 mi Calm Calm - N/A Fog Fog
7:51 PM 42.8 °F - 42.8 °F 100% 30.37 in 0.2 mi Calm Calm - N/A Fog Fog
7:53 PM 43.0 °F - 42.1 °F 97% 30.38 in 0.2 mi Calm Calm - N/A Fog Fog
8:03 PM 43.0 °F - 42.1 °F 97% 30.36 in 0.2 mi Calm Calm - N/A Fog Fog
8:27 PM 43.0 °F - 42.1 °F 97% 30.37 in 0.2 mi Calm Calm - N/A Fog Fog
8:53 PM 42.1 °F 40.2 °F 41.0 °F 96% 30.40 in 0.2 mi NNE 3.5 mph - N/A Fog Fog
9:29 PM 42.1 °F 39.2 °F 42.1 °F 100% 30.37 in 0.5 mi SSE 4.6 mph - N/A Fog Fog
9:49 PM 42.8 °F 41.1 °F 41.0 °F 93% 30.36 in 1.8 mi SSE 3.5 mph - N/A   Overcast
9:51 PM 42.8 °F 40.1 °F 42.8 °F 100% 30.36 in 3.0 mi South 4.6 mph - N/A   Overcast
9:53 PM 42.1 °F 40.2 °F 42.1 °F 100% 30.38 in 4.0 mi Variable 3.5 mph - N/A   Overcast
9:58 PM 42.1 °F - 42.1 °F 100% 30.36 in 8.0 mi Calm Calm - N/A   Overcast
10:22 PM 42.1 °F 39.2 °F 41.0 °F 96% 30.37 in 9.0 mi ENE 4.6 mph - N/A   Overcast
10:53 PM 42.1 °F - 42.1 °F 100% 30.38 in 2.0 mi Calm Calm - N/A   Overcast
10:56 PM 42.1 °F - 42.1 °F 100% 30.36 in 1.2 mi North - - N/A   Mist
11:04 PM 42.1 °F - 42.1 °F 100% 30.36 in - North - - N/A   Unknown
11:53 PM - - - N/A% 30.35 in - North - - N/A   Unknown